Miscellaneous Local Product
Issued by NWS Hastings, NE

Home | Current Version | Previous Version | Text Only | Print | Product List | Glossary Off
Versions: 1 2 3 4 5 6 7 8 9 10 11 12 13 14 15 16 17 18 19 20 21 22 23 24 25 26 27 28 29 30 31 32 33 34 35 36 37 38 39 40 41 42 43 44 45 46 47 48 49 50

000
AXUS43 KGID 230202
MISGRI

GID CWA HOURLY WEATHER ROUNDUP
NATIONAL WEATHER SERVICE HASTINGS NE
900 PM CDT WED OCT 22 2014

NOTE: "FAIR" INDICATES FEW OR NO CLOUDS BELOW 12,000 FEET WITH NO
SIGNIFICANT WEATHER AND/OR OBSTRUCTIONS TO VISIBILITY.

...SOUTH CENTRAL NEBRASKA...

CITY           SKY/WX    TMP DP  RH WIND       PRES   REMARKS
GRAND ISLAND   FOG       58  56  93 CALM      30.03S VSB 1/4
HASTINGS       CLOUDY    61  57  87 CALM      30.03R
KEARNEY        CLOUDY    54  52  94 CALM      30.04R VSB 1/4
ORD            CLEAR     51  49  92 CALM      30.04R FOG
YORK           CLOUDY    63  59  88 S9        30.03S
AURORA         CLOUDY    61  61 100 S5        30.03S
LEXINGTON      CLEAR     51  49  92 NE7       30.05R
HOLDREGE       FOG       52  51  95 CALM      30.04R VSB 1/2
HEBRON         CLOUDY    60  57  89 CALM      30.04R

...NEBRASKA PANHANDLE...

CITY           SKY/WX    TMP DP  RH WIND       PRES   REMARKS
CHADRON        CLEAR     42  33  70 SW3       30.04R
ALLIANCE       CLEAR     44  30  57 CALM      30.07R
SCOTTSBLUFF    CLEAR     56  25  30 S5        30.08R
SIDNEY         CLOUDY    51  38  60 CALM      30.11R

...WESTERN AND NORTH CENTRAL NEBRASKA...

CITY           SKY/WX    TMP DP  RH WIND       PRES   REMARKS
VALENTINE      CLEAR     50  40  68 CALM      30.04S
AINSWORTH      PTCLDY    47  42  85 CALM      30.05S
ONEILL         FOG       49  49 100 S3        30.04S VSB 3/4
BROKEN BOW     PTCLDY    50  48  93 N3        30.05R
IMPERIAL       CLEAR     52  33  48 CALM      30.08R
NORTH PLATTE   CLEAR     51  49  92 NE5       30.06R
MCCOOK         CLEAR     60  50  69 CALM      30.05R

...EASTERN NEBRASKA...

CITY           SKY/WX    TMP DP  RH WIND       PRES   REMARKS
NORFOLK        CLOUDY    59  58  96 SE3       30.03R
SO SIOUX CITY  CLOUDY    60  58  92 SE5       30.03S
TEKAMAH        RAIN      63  60  90 W8        30.03R
COLUMBUS       CLOUDY    63  57  82 S6        30.04S
ALBION         CLOUDY    57  55  94 NW6       30.04R
OMAHA EPPLEY   HVY RAIN  63  61  93 CALM      30.07S FOG
OFFUTT AFB     RAIN      63  63 100 N5        30.06S FOG
MILLARD        RAIN      64  61  93 NW7       30.06R
LINCOLN        LGT RAIN  63  60  90 CALM      30.08R FOG
NEBRASKA CITY  CLOUDY    65  54  65 S12G18    30.04S
BEATRICE       RAIN      61  59  94 S3        30.05F
FALLS CITY     LGT RAIN  65  56  72 SE10      30.05S

...NORTHERN KANSAS...

CITY           SKY/WX    TMP DP  RH WIND       PRES   REMARKS
GOODLAND       PTCLDY    54  45  71 E3        30.10R
HILL CITY      CLEAR     62  56  80 S6        30.03S
NORTON         CLEAR     55  50  82 E3        30.03R
PHILLIPSBURG   CLEAR     63  63 100 SW5       30.02R
SMITH CENTER   PTCLDY    61  55  82 S8        30.03S
BELOIT         CLOUDY    64  57  77 S9        30.02S
HAYS           MOCLDY    61  54  77 S13       30.05S THUNDER
RUSSELL        CLOUDY    63  57  81 S13       30.04R
CONCORDIA      CLOUDY    62  59  90 S12       30.04R
SALINA         LGT RAIN  64  59  83 S8        30.06S
TOPEKA         PTCLDY    68  58  70 SE10      30.08R



USA.gov is the U.S. government's official web portal to all federal, state and local government web resources and services.